Regional Weather Roundup
Issued by NWS Albany, NY

Home | Current Version | Previous Version | Text Only | Print | Product List | Glossary On
Versions: 1 2 3 4 5 6 7 8 9 10 11 12 13 14 15 16 17 18 19 20 21 22 23 24 25 26 27 28 29 30 31 32 33 34 35 36 37 38 39 40 41 42 43 44 45 46 47 48 49 50
000
ASUS41 KALY 200710
RWRALY

NEW YORK STATE HOURLY WEATHER ROUNDUP
NATIONAL WEATHER SERVICE ALBANY NY
200 AM EST FRI JAN 20 2017

NOTE: "FAIR" INDICATES FEW OR NO CLOUDS BELOW 12,000 FEET WITH NO
SIGNIFICANT WEATHER AND/OR NO OBSTRUCTIONS TO VISIBILITY.

NYZ032-033-038>043-046>054-057>066-NYZ062>081-082-084-200800-
EAST


CITY           SKY/WX    TMP DP  RH WIND       PRES   REMARKS
ALBANY         CLOUDY    35  31  85 NE3       30.02S
GLENS FALLS    CLOUDY    35  32  88 CALM      30.02R
POUGHKEEPSIE   CLOUDY    38  29  70 N5        30.03R WCI  34
NEWBURGH       CLOUDY    37  32  81 NE6       30.03R WCI  33
MONTGOMERY     CLOUDY    37  32  82 CALM      30.01R
WHITE PLAINS   CLOUDY    39  28  64 NE3       30.03R
ISLIP          CLOUDY    40  32  73 CALM      30.03S
NEW YORK CITY  CLOUDY    42  32  67 E12       30.03F
CENTRAL PARK   CLOUDY    42  32  67 VRB3      30.05S
$$

NYZ005>009-017-018-044>046-055-056-200800-
CENTRAL


CITY           SKY/WX    TMP DP  RH WIND       PRES   REMARKS
FULTON         CLOUDY    34  33  96 CALM      30.00S
SYRACUSE       CLOUDY    34  32  92 SE5       30.00S WCI  30
ROME           CLOUDY    33  33 100 CALM      30.03R FOG
ELMIRA         CLOUDY    35  32  88 CALM      29.96F
BINGHAMTON     CLOUDY    31  29  92 SE3       29.95S
MONTICELLO     CLOUDY    34  30  86 S5        29.99S WCI  30
$$

NYZ026>034-041>043-087-200800-
NORTH


CITY           SKY/WX    TMP DP  RH WIND       PRES   REMARKS
WATERTOWN      CLOUDY    35  35 100 S3        30.00S FOG
FORT DRUM      NOT AVBL
OGDENSBURG     MOCLDY    34  34  99 S3        30.00S FOG
MASSENA        LGT RAIN  33  33 100 CALM      30.02R
SARANAC LAKE   CLOUDY    30  29  96 CALM      29.93R
PLATTSBURGH    CLOUDY    32  30  92 CALM      30.00S
$$

NYZ001>004-010>016-019>021-085-200800-
WEST


CITY           SKY/WX    TMP DP  RH WIND       PRES   REMARKS
NIAGARA FALLS  CLOUDY    35  32  88 E5        29.92F FOG     WCI  31
BUFFALO        CLOUDY    34  33  96 NE5       29.92F FOG     WCI  30
DUNKIRK        CLOUDY    34  33  96 E6        29.91F WCI  29
JAMESTOWN      CLOUDY    32  30  93 S7        29.88S VSB<1/4 WCI  26
WELLSVILLE     FOG       34  32  92 S9        29.92R VSB 1/4 WCI  27
ROCHESTER      CLOUDY    36  33  89 SE7       29.97F WCI  30
PENN YAN       CLOUDY    34  30  85 CALM      29.97S
$$

             KEY
       WCI = WIND CHILL INDEX
       VSB = VISIBILITY
       HX  = HEAT INDEX
$$



USA.gov is the U.S. government's official web portal to all federal, state and local government web resources and services.